Theta_e
287 287 287 288 288 287 287 288 288 288 288 289 288 288 288 288 285 280 279 280 281 282 284 282 284 286 286 286 287 287 286 287 288 285 283 283 283 288 290 291 293 293 292 292 292 291 291 291 292 292 293 293 293 293 293 294 293 294 294 294 295 295 296 296 296 296 296 296 297 297 297 297 298 298
286 287 287 287 287 287 286 287 286 287 288 287 288 288 288 289 287 284 282 282 282 281 283 283 282 285 286 286 287 287 285 289 287 284 283 283 282 288 290 290 291 292 292 292 292 292 291 291 291 292 292 292 293 293 294 294 293 294 294 295 295 295 296 296 296 295 295 295 296 296 296 297 297 297
286 286 286 286 286 286 286 286 286 286 286 287 286 287 288 287 289 285 283 282 281 284 282 283 283 284 285 286 286 286 284 287 286 283 282 283 286 288 288 289 290 291 291 292 292 292 291 291 291 291 292 292 293 293 293 293 293 293 293 293 294 295 295 295 294 294 294 294 295 295 296 296 296 297
286 286 286 286 286 286 285 286 286 285 285 286 286 286 286 285 286 285 284 284 284 283 284 284 283 284 284 285 284 284 283 286 286 282 282 283 287 286 284 288 289 289 290 291 291 291 291 291 291 291 291 292 292 292 292 292 292 292 292 293 294 295 294 293 294 293 293 293 294 294 294 295 295 296
285 285 286 286 286 285 285 286 286 285 285 285 285 285 285 285 284 284 284 283 282 280 281 283 282 283 284 283 284 283 282 282 283 284 282 283 283 281 281 282 287 288 289 290 290 290 291 291 291 291 291 291 292 291 292 291 291 291 292 293 293 293 293 293 293 293 293 293 293 293 294 294 294 295
285 285 285 285 285 284 285 286 286 286 285 284 285 284 284 284 284 284 284 283 283 281 281 280 281 282 284 282 283 283 281 281 282 281 281 281 280 280 279 279 281 287 288 289 289 290 290 291 291 292 291 291 291 291 291 291 291 291 291 292 291 291 292 292 292 292 291 292 292 293 293 293 294 294
284 284 284 284 284 285 284 285 286 286 285 285 285 285 285 285 285 284 284 283 282 281 279 280 281 281 282 282 282 282 282 281 281 280 280 280 280 280 279 279 281 287 288 289 289 290 290 290 291 291 292 291 291 291 291 291 290 291 291 291 291 291 291 291 291 290 290 291 292 292 292 293 293 293
284 284 284 284 283 283 284 285 284 284 284 284 284 285 285 285 285 284 284 284 285 281 280 280 281 281 281 281 281 282 281 280 279 280 279 279 279 279 280 279 280 285 289 289 289 289 289 290 290 291 291 291 291 291 290 290 290 290 290 290 290 290 290 290 289 289 289 290 291 291 292 292 292 293
285 284 284 284 283 283 283 284 284 284 283 284 284 285 285 285 285 284 284 284 284 281 281 280 280 281 281 281 280 281 280 279 278 278 278 279 279 278 279 280 281 285 288 288 288 288 289 289 290 291 291 291 291 290 290 290 290 290 289 289 289 289 289 289 288 288 288 289 289 290 290 291 292 292
284 285 285 285 284 284 284 284 285 284 284 284 284 284 284 284 284 284 284 284 283 282 281 280 279 279 280 279 279 281 281 279 278 277 278 278 278 278 278 279 280 281 282 283 285 287 287 288 289 290 290 291 291 290 290 289 289 289 288 288 288 288 288 288 287 288 288 289 289 289 290 290 291 291
284 285 285 285 285 285 285 285 285 285 284 285 284 284 284 284 284 284 284 284 283 283 281 279 280 280 280 280 279 280 281 280 279 278 277 276 278 278 279 278 279 280 281 284 286 285 284 286 286 288 289 290 290 290 289 289 289 288 288 288 288 287 287 287 287 287 288 288 288 288 288 289 290 290
285 285 285 285 285 285 285 285 285 285 285 285 284 285 284 284 284 284 284 283 283 283 282 280 279 279 279 278 277 279 279 278 277 278 278 277 277 277 279 279 278 279 279 279 281 284 285 285 286 287 288 289 289 289 288 288 288 288 288 287 287 287 287 287 287 287 287 288 288 288 288 288 288 289
285 285 285 285 285 285 286 287 287 287 287 286 285 285 284 283 284 284 284 284 283 283 283 281 279 278 278 278 277 277 277 277 278 279 279 278 279 278 278 278 279 280 279 279 279 279 280 280 280 281 281 283 286 286 287 286 286 286 287 287 286 286 286 286 287 287 287 287 287 288 288 288 288 288
285 285 285 286 286 286 286 286 287 288 288 288 287 286 285 284 284 284 284 284 284 283 282 282 279 278 278 278 278 278 278 279 279 278 278 277 278 278 277 278 278 280 279 278 277 278 280 279 278 278 279 280 282 281 281 281 282 284 286 286 286 286 286 286 287 287 287 287 287 287 287 287 287 287
284 284 285 285 285 286 286 286 287 288 288 289 289 289 288 287 285 284 284 284 284 283 283 283 282 279 279 279 279 278 279 279 279 278 278 278 278 276 275 274 277 280 279 278 277 277 279 279 277 278 278 279 279 279 279 283 285 284 285 286 286 286 286 286 287 287 287 287 287 287 287 287 287 287
284 284 284 285 285 285 285 285 285 286 287 288 288 289 289 289 289 289 286 284 284 284 283 283 283 281 280 280 279 278 278 277 278 278 279 278 278 277 276 277 276 279 281 278 277 276 278 279 277 277 278 278 278 279 281 284 285 286 286 286 286 286 286 286 287 287 287 286 286 286 287 287 287 286
283 284 284 284 285 285 286 286 285 285 284 286 287 288 288 288 289 290 290 289 286 285 284 283 283 283 282 280 279 279 279 280 278 279 278 278 278 278 278 278 278 278 281 279 277 275 277 278 277 276 278 278 278 280 283 285 285 286 286 286 286 286 286 286 286 286 286 286 286 286 286 286 286 286
283 283 283 283 283 284 285 285 285 285 284 284 284 284 285 285 286 288 289 289 288 287 285 285 283 284 284 282 281 280 281 279 278 278 278 279 278 278 279 280 279 279 281 278 277 275 276 278 277 276 276 277 277 277 281 285 285 286 286 286 286 286 286 286 286 286 286 285 286 286 286 285 285 285
283 283 283 283 283 284 284 284 285 284 284 284 284 283 283 284 284 285 285 286 287 286 286 285 285 285 285 284 283 281 281 280 280 281 280 280 280 280 278 276 277 278 280 279 278 274 276 277 276 276 276 276 276 277 281 284 285 286 286 286 286 286 286 286 286 285 285 285 285 286 285 285 285 285
282 283 283 283 283 284 284 285 287 287 285 284 283 283 283 283 284 284 286 287 288 287 286 286 285 285 285 287 284 282 282 281 281 281 280 279 278 276 275 274 274 275 279 279 278 274 274 277 276 275 276 276 276 277 277 282 285 285 285 285 286 286 286 286 285 285 285 285 285 285 285 285 285 284
281 282 282 283 283 283 283 286 288 288 288 284 283 282 282 282 283 283 284 287 288 289 289 289 289 289 289 290 291 288 287 283 282 280 278 277 278 276 274 273 273 273 276 277 278 276 273 275 275 274 274 275 275 275 276 277 282 284 284 284 285 285 286 286 285 284 284 284 284 284 284 284 284 284
280 281 283 283 282 282 283 286 288 288 287 284 284 283 282 281 281 282 283 284 285 287 288 289 289 289 289 289 290 290 289 287 285 280 278 278 278 276 276 274 273 274 275 276 277 275 273 275 274 273 273 274 274 275 275 276 278 282 282 284 284 285 285 285 284 284 283 283 283 283 283 283 283 280
279 280 282 283 284 283 284 287 288 288 287 284 283 283 282 281 281 282 283 282 282 282 283 284 285 285 286 286 285 286 288 287 286 282 281 280 278 276 277 275 273 271 273 275 277 274 273 273 274 273 271 268 271 275 275 276 276 277 277 279 281 284 284 284 282 281 282 282 282 282 283 283 283 279
278 279 280 282 285 287 287 288 288 288 288 285 284 283 282 281 281 283 282 281 282 282 282 282 283 283 283 283 283 283 284 285 283 282 281 281 280 278 278 276 275 273 274 276 277 275 275 274 273 275 273 270 268 272 274 274 276 276 276 276 276 279 280 279 279 280 280 280 280 280 281 282 281 278
277 278 279 280 283 285 286 287 288 288 289 288 285 284 282 282 283 285 281 281 283 281 281 281 282 281 282 282 282 282 282 283 283 282 282 281 280 280 279 277 276 275 274 276 280 276 273 274 273 274 272 271 271 271 273 274 275 275 276 275 274 276 276 275 276 275 277 278 278 279 280 280 281 279
277 278 279 279 281 284 285 286 287 288 289 289 286 284 287 287 287 284 282 281 281 281 280 280 280 280 280 280 280 281 281 282 282 281 280 280 280 280 281 279 277 275 271 277 281 276 274 272 273 272 271 269 269 271 271 271 273 274 275 275 275 274 275 274 275 275 274 274 274 276 276 279 280 281
277 278 279 280 282 284 285 286 287 287 288 288 287 288 288 288 287 286 283 281 280 280 280 279 279 279 279 279 279 280 280 281 281 280 280 280 280 279 278 278 278 278 277 277 279 277 275 273 274 272 271 271 270 270 270 270 270 273 273 273 274 274 275 274 274 274 274 274 275 277 278 279 279 280
277 278 278 279 283 284 285 285 286 287 287 286 287 288 288 288 287 285 283 281 280 279 279 278 278 278 278 279 279 279 280 280 280 279 277 277 278 276 275 275 276 276 277 277 277 276 274 273 273 273 273 271 269 269 267 271 271 272 271 274 274 274 274 275 274 274 274 274 274 274 274 273 275 275
278 281 282 283 283 284 284 285 286 286 286 287 287 287 288 286 285 284 283 282 280 278 277 278 278 278 278 279 279 280 280 279 278 275 276 276 275 274 274 274 274 275 275 275 275 274 274 273 272 273 272 271 270 270 270 269 270 270 271 271 270 273 273 274 274 273 273 273 273 273 272 273 273 274
281 282 283 283 283 283 284 283 282 282 283 285 286 286 286 285 284 284 283 281 280 278 278 278 277 278 278 278 278 278 278 276 275 274 273 272 271 271 270 270 270 271 273 274 274 273 273 273 272 272 270 269 269 269 270 269 268 270 271 271 271 273 273 273 273 273 273 272 272 272 273 273 273 274
279 280 282 282 283 282 283 284 284 284 284 283 283 283 284 285 284 284 283 281 280 279 278 278 278 278 278 278 275 274 275 274 274 274 273 272 271 270 270 269 267 267 269 271 272 273 272 272 272 271 268 268 268 269 270 270 267 269 269 271 271 267 271 272 272 273 273 273 273 272 272 272 272 274
278 278 281 281 281 281 281 281 281 282 282 281 281 282 283 283 283 283 283 283 281 280 279 278 278 277 276 274 273 274 274 273 273 273 272 271 270 270 269 267 265 266 266 267 269 271 272 272 272 271 270 270 267 268 269 268 267 268 268 270 270 271 272 271 271 272 272 272 271 270 271 271 271 272
276 277 276 276 276 277 277 278 279 280 280 281 281 281 281 282 282 282 282 280 280 279 279 277 277 276 275 274 273 273 273 272 272 272 271 271 269 269 270 268 267 265 264 265 266 267 269 270 271 271 271 271 270 269 267 265 267 268 267 268 269 269 270 271 271 271 272 271 269 270 270 271 272 272
273 274 275 275 275 276 276 277 278 278 279 279 280 280 281 281 281 281 281 280 280 279 278 277 276 275 274 273 272 272 272 271 270 271 271 269 269 268 268 267 266 266 266 265 265 266 267 268 269 268 269 269 269 270 269 266 266 267 268 269 269 268 270 271 271 271 271 270 269 266 267 269 270 271
272 273 274 275 276 276 277 277 277 278 278 278 279 279 279 280 280 280 280 280 279 278 277 277 276 274 274 273 272 271 271 269 269 269 269 269 268 268 268 267 266 266 265 265 265 266 266 266 266 265 266 266 266 266 271 269 267 267 268 268 269 269 268 270 270 270 270 270 270 266 266 268 269 270
271 272 272 274 276 277 277 277 278 278 278 278 278 278 278 278 279 279 279 279 278 277 277 276 274 273 273 272 272 271 269 268 268 268 267 267 267 267 268 267 267 266 266 266 265 266 266 265 265 264 263 263 262 262 264 272 271 268 267 266 268 268 269 269 270 270 269 268 269 268 265 265 267 269
270 271 271 273 275 276 276 277 277 278 278 278 278 278 278 278 278 279 279 279 277 277 276 275 273 273 272 271 271 270 268 268 267 267 267 267 267 267 266 266 266 266 266 266 267 266 266 265 265 264 263 263 262 261 263 269 272 273 269 267 266 268 268 268 267 266 268 269 268 268 267 267 267 269
269 271 271 272 274 275 277 277 277 277 277 278 278 278 278 278 278 278 277 276 276 276 275 273 272 272 271 271 270 269 268 268 267 267 266 267 266 266 266 266 266 266 265 267 267 266 267 266 265 265 265 263 263 263 263 266 268 271 273 269 266 267 269 266 265 265 266 268 267 268 269 266 267 268
270 270 271 271 273 274 276 277 277 277 277 277 277 277 277 277 276 275 275 275 275 274 273 272 271 271 271 270 270 269 267 267 266 266 266 266 266 266 266 266 265 266 265 265 266 266 266 266 266 265 266 265 264 264 265 265 264 266 271 274 270 267 266 266 264 265 265 265 266 268 268 269 270 273
271 272 272 272 272 274 276 277 277 277 277 277 277 277 277 275 275 274 274 274 273 273 272 271 271 271 270 270 269 268 268 267 266 266 266 265 266 266 266 266 265 265 264 264 264 265 266 265 267 266 267 267 266 265 265 265 265 266 266 269 274 271 267 267 265 265 264 266 267 265 264 266 265 267
272 272 272 273 274 275 276 277 277 277 277 277 277 277 276 275 274 273 273 273 272 272 271 271 270 270 269 269 268 268 266 266 266 266 265 265 266 266 266 266 265 265 264 264 264 264 265 266 269 271 268 267 266 267 264 262 261 263 264 265 270 271 272 272 269 268 266 267 267 265 264 263 264 265
273 273 273 274 275 277 277 276 277 277 277 277 276 275 274 273 273 274 273 273 272 271 271 270 269 269 268 268 267 267 266 266 265 265 265 265 265 265 266 265 264 265 264 264 264 264 267 269 269 269 267 266 265 263 261 263 262 263 264 265 265 270 272 273 273 273 271 269 265 264 263 264 265 263
275 275 275 276 277 277 276 276 277 277 276 275 274 273 272 271 272 272 271 271 270 270 269 268 268 268 268 267 267 267 266 265 265 265 265 265 265 264 264 264 265 265 264 265 266 266 267 268 268 266 266 265 264 264 262 262 262 263 263 263 264 265 267 270 271 272 272 273 273 270 268 266 264 262
275 276 277 277 276 276 276 276 276 275 275 274 273 272 271 271 271 271 270 269 269 268 268 267 267 267 267 267 267 266 266 266 265 265 265 265 265 265 264 265 265 265 265 265 265 265 266 266 266 266 264 263 264 263 261 262 262 262 262 263 264 263 263 264 266 269 270 271 272 272 272 272 272 272
272 273 273 273 273 272 273 273 273 273 273 272 271 271 270 270 269 269 268 268 268 267 267 266 266 266 266 266 266 265 265 267 266 265 265 265 265 265 264 264 264 264 264 265 264 264 265 265 265 265 264 264 264 263 263 263 262 262 262 262 262 263 263 263 263 262 263 263 267 270 270 271 272 272
Wind_Speed
8 9 10 9 8 7 6 7 8 8 8 8 8 10 12 11 11 7 8 10 9 7 10 8 10 11 10 10 8 10 9 11 15 10 9 9 8 13 16 15 14 14 14 12 12 11 11 10 10 9 9 8 7 6 6 6 5 6 5 4 5 5 4 3 3 2 2 3 4 5 5 6 6 7
7 8 9 9 9 7 6 7 6 8 9 8 8 8 9 10 14 9 11 11 10 7 8 8 7 9 11 10 9 9 8 13 16 10 10 9 9 15 18 16 15 15 15 14 13 12 12 11 11 10 10 9 8 7 7 6 6 6 6 6 5 5 5 4 3 3 3 4 4 4 5 6 6 7
7 8 10 9 9 7 8 8 7 7 7 8 8 8 8 9 12 10 9 9 6 9 10 10 6 11 12 10 9 8 7 11 14 11 10 8 13 18 14 17 16 15 15 14 13 13 13 13 12 11 11 10 9 9 8 8 7 6 6 6 6 6 5 3 2 3 3 3 4 5 5 6 6 7
6 8 10 10 9 7 7 9 8 8 7 7 7 7 7 7 8 8 9 12 10 9 10 10 10 12 12 11 11 9 6 9 16 9 10 9 14 12 8 16 17 15 15 15 14 14 13 13 13 12 12 11 10 10 9 9 9 7 6 7 7 6 4 4 4 3 3 3 4 5 5 5 6 6
7 8 10 10 10 6 8 10 9 8 8 7 7 7 7 7 6 7 8 9 7 1 1 6 8 9 11 9 10 11 8 8 10 10 9 10 9 9 8 8 14 16 15 15 15 14 14 13 13 13 13 12 11 11 9 8 8 7 7 7 6 6 5 5 4 3 3 3 4 5 5 5 5 6
7 7 10 10 8 7 10 11 11 10 9 8 9 8 8 8 8 7 7 8 7 8 1 4 4 7 10 10 9 14 12 11 9 11 10 8 8 9 8 8 8 16 15 15 16 15 15 14 13 14 13 13 12 11 10 9 9 8 8 7 7 7 7 6 5 4 4 4 4 4 5 5 5 6
7 8 9 9 7 6 9 11 11 9 10 9 10 12 9 10 10 8 8 7 8 8 7 5 8 9 10 12 12 12 10 9 10 11 10 10 8 7 8 8 6 14 16 17 16 17 16 15 14 14 14 13 13 11 11 10 9 8 8 8 7 7 7 6 5 5 4 4 5 5 5 5 6 6
8 9 10 9 7 7 11 11 10 8 8 9 9 10 10 11 12 9 8 9 10 7 9 7 10 9 11 7 5 8 7 9 10 10 7 5 7 6 7 8 7 11 17 17 17 17 17 16 15 15 15 14 13 12 12 11 10 9 9 8 8 7 7 6 5 4 4 5 5 6 6 6 6 6
9 10 10 9 6 8 11 11 9 8 9 10 10 11 10 10 10 7 8 10 8 7 11 8 6 7 8 6 7 11 12 9 8 6 9 9 9 7 6 5 6 9 17 17 18 17 17 17 17 16 15 15 14 13 13 12 11 10 10 9 8 8 7 6 5 5 5 5 5 6 7 7 7 7
8 9 10 9 8 10 12 12 9 9 11 10 11 12 11 10 8 9 10 9 9 9 8 10 8 6 10 7 7 12 12 12 10 8 7 5 7 8 7 7 6 6 6 6 9 13 14 16 17 16 16 16 15 14 13 12 12 11 10 10 9 8 8 7 6 6 6 6 7 7 7 7 8 8
8 9 9 9 9 11 12 12 11 10 10 10 12 12 11 10 9 10 11 10 10 11 9 7 9 11 9 10 11 10 11 10 11 13 11 9 7 8 9 8 6 6 7 7 11 9 8 9 8 13 16 16 16 15 14 13 13 11 11 11 10 10 9 9 8 8 8 8 8 7 7 8 8 8
9 10 10 10 10 11 11 11 10 10 11 10 11 11 10 10 11 12 10 10 10 11 11 9 10 9 11 8 2 5 9 9 7 8 11 14 13 12 10 11 10 8 7 7 7 10 11 11 13 15 16 17 17 16 14 14 13 12 12 11 11 11 11 10 10 10 9 8 8 8 8 8 8 8
9 9 9 10 10 11 14 17 15 13 12 10 11 11 9 10 10 11 10 10 10 10 11 10 7 9 10 11 11 12 14 17 19 14 12 11 9 9 9 8 7 8 9 7 7 7 8 8 8 7 8 9 13 12 14 9 13 13 12 12 12 12 12 11 11 10 9 8 8 8 8 8 8 8
10 10 10 10 14 15 17 17 18 19 20 20 16 11 8 9 10 11 12 12 12 12 12 13 10 11 12 14 15 16 17 13 8 11 13 11 8 7 8 4 6 8 9 9 9 9 7 8 7 7 8 6 7 6 6 6 7 10 14 14 14 13 13 12 11 10 10 9 9 8 7 7 7 7
11 10 10 10 12 14 15 15 18 18 20 21 22 22 18 14 12 11 13 13 13 13 13 12 11 13 16 15 14 15 13 12 15 15 14 12 10 13 13 13 5 9 12 10 10 9 8 9 10 8 8 7 7 6 7 11 15 15 15 16 15 14 13 13 12 11 10 10 9 8 7 6 6 6
11 11 11 10 8 9 11 11 11 14 19 21 22 22 21 22 23 21 16 14 13 13 14 14 15 13 16 15 13 12 11 13 12 11 13 14 15 14 13 10 11 10 16 13 11 10 8 9 9 8 8 8 7 7 10 15 16 17 17 17 16 15 14 14 13 12 11 10 9 8 8 7 6 6
11 10 10 10 10 9 15 13 12 12 11 14 19 20 22 23 25 25 26 23 17 12 14 14 16 17 16 13 13 15 15 13 15 14 13 14 13 13 15 14 9 8 18 12 10 10 10 12 10 10 8 7 6 7 13 17 17 18 19 17 16 16 15 15 14 13 11 10 9 8 8 7 6 6
12 12 11 11 11 10 10 10 11 11 12 11 11 12 13 14 19 23 26 26 26 21 16 15 18 17 14 14 12 12 13 16 17 15 15 13 13 14 16 14 10 8 14 17 12 7 9 10 10 10 7 7 7 7 11 18 19 19 19 18 17 17 16 15 14 13 11 10 9 8 8 7 6 6
13 13 12 12 13 12 11 10 12 11 11 10 11 11 12 13 13 14 15 17 17 16 15 16 18 16 13 12 11 13 16 19 17 17 19 19 18 13 3 7 5 7 10 9 9 12 8 9 10 9 8 7 7 6 11 19 19 19 18 18 18 17 16 15 14 12 11 10 9 8 8 7 7 7
12 12 13 12 13 13 13 14 19 17 12 10 12 14 13 12 12 13 15 19 17 16 15 16 17 14 12 12 10 12 15 14 11 6 3 3 4 6 7 8 4 7 9 11 10 5 7 9 11 8 7 7 7 7 7 16 20 18 18 18 18 18 17 16 15 12 11 9 8 8 8 8 7 7
13 13 13 13 13 13 13 14 18 19 19 13 14 14 14 13 12 14 13 18 21 22 22 24 24 22 20 20 14 17 22 17 13 10 10 13 12 11 11 8 7 9 9 9 10 7 7 9 9 7 7 8 8 8 8 7 14 18 17 17 18 18 18 17 14 12 10 8 8 8 8 8 7 8
13 14 21 18 15 14 14 15 19 20 18 14 14 14 14 15 14 15 13 9 10 17 22 23 24 24 23 20 19 18 21 23 18 17 19 15 12 13 14 14 11 6 8 12 10 8 7 8 7 7 4 4 2 6 5 7 7 13 14 17 17 17 17 16 13 10 8 7 7 7 7 7 7 2
13 13 15 22 20 17 16 20 21 22 18 14 14 14 14 15 16 16 12 9 9 10 11 14 15 15 17 15 13 13 22 25 21 19 17 12 16 17 15 10 8 6 10 10 11 10 6 11 7 10 6 3 3 3 6 6 7 7 6 7 10 15 15 12 10 9 8 6 6 6 7 7 6 1
14 13 13 15 20 25 25 24 24 23 23 16 14 13 13 14 18 14 10 9 12 13 13 13 13 14 12 11 11 11 13 17 20 18 15 14 16 16 14 13 15 14 10 10 14 11 5 9 11 11 7 8 7 6 7 7 8 8 7 7 5 9 10 8 6 7 6 4 4 5 6 7 6 2
16 15 14 13 16 23 25 25 25 24 25 23 16 15 14 16 18 14 6 12 19 12 12 12 13 12 11 11 12 12 13 13 14 16 16 15 16 15 14 14 14 10 4 14 23 12 10 11 11 11 7 3 4 7 7 6 7 7 8 7 6 6 5 4 4 4 5 5 5 6 6 7 8 6
17 17 15 14 14 20 23 24 24 26 25 27 17 16 19 22 20 14 10 9 9 10 11 11 11 11 11 12 13 13 13 13 13 14 13 12 13 11 11 14 15 12 6 14 25 13 10 10 13 13 8 6 2 6 8 4 5 6 6 5 5 5 5 4 4 4 4 3 3 4 5 8 9 10
19 17 17 15 19 21 22 23 25 25 26 22 17 22 23 23 22 17 11 9 10 10 11 11 12 12 12 12 13 13 13 12 11 11 11 10 10 9 6 4 6 9 9 16 21 16 12 9 12 16 14 9 9 6 4 7 5 7 4 5 5 5 5 5 5 4 4 4 4 6 6 8 10 11
19 19 18 16 19 23 24 25 25 25 24 17 22 24 26 24 21 14 11 11 11 11 11 12 13 14 13 12 12 12 11 10 8 7 4 4 4 6 6 6 8 9 12 14 14 10 8 8 9 7 10 13 12 12 9 3 3 7 6 5 5 4 5 5 4 4 3 4 3 3 3 3 3 4
20 21 26 25 24 23 24 27 26 23 24 27 25 25 24 22 13 12 11 12 11 12 12 13 13 12 12 12 11 9 8 7 8 8 6 6 5 5 6 6 6 7 9 9 11 9 7 8 9 8 7 7 8 5 8 7 6 5 6 5 2 4 5 4 4 4 4 4 4 4 4 4 4 4
36 35 33 36 32 25 22 18 15 14 13 21 25 24 21 13 12 11 11 11 12 13 13 13 13 12 9 8 7 8 8 9 9 9 9 9 7 8 9 9 6 5 5 7 7 6 7 6 8 7 7 5 5 7 6 7 4 4 6 6 4 2 3 5 5 5 4 4 3 3 4 5 5 3
21 25 27 19 22 23 24 22 16 15 15 15 14 13 13 12 12 12 11 12 13 13 12 11 11 9 7 6 8 9 10 10 9 10 11 11 10 9 8 10 10 7 4 5 5 6 7 7 7 8 9 7 4 6 4 4 6 6 4 5 6 5 2 5 5 5 4 4 3 3 3 4 4 5
15 14 15 21 17 14 14 14 13 13 12 12 11 11 11 11 12 14 15 13 11 11 11 10 8 7 8 10 10 9 10 10 10 10 10 11 10 9 10 9 7 8 7 6 5 5 6 7 7 5 5 7 8 6 4 4 6 5 5 4 5 4 3 4 4 4 3 2 4 4 5 5 5 5
16 11 11 11 12 12 12 12 13 12 12 12 12 13 11 11 11 11 11 12 12 12 10 10 11 10 9 8 9 10 10 10 10 9 9 8 11 9 9 11 11 8 9 6 6 5 5 5 5 6 5 4 5 6 8 6 5 5 5 5 4 4 4 5 4 4 3 4 3 5 5 5 4 5
18 16 15 13 12 12 11 12 12 13 12 12 12 11 14 13 11 11 11 11 11 10 11 11 11 10 10 10 10 10 10 9 8 9 11 10 10 11 11 10 8 8 5 7 6 7 7 5 6 6 6 4 3 3 6 7 7 6 5 4 5 4 4 3 4 4 4 4 4 3 3 4 5 5
15 14 15 13 11 11 11 10 11 11 11 11 11 10 10 11 11 12 10 10 9 10 10 10 10 11 11 11 11 11 10 10 9 8 7 8 10 11 11 11 10 9 7 7 6 7 6 7 7 7 5 3 2 2 4 5 6 6 5 5 4 5 4 4 3 3 3 4 5 4 4 5 7 6
17 14 14 13 14 11 11 10 10 10 10 10 10 9 9 9 10 11 11 10 10 10 10 10 10 11 11 11 11 11 10 11 10 10 10 10 10 9 8 10 11 11 11 9 9 8 8 8 9 8 8 6 6 4 5 13 13 7 8 6 5 5 4 4 4 4 4 4 5 4 5 6 6 6
14 13 14 13 13 12 11 10 9 8 9 9 8 8 9 9 9 10 9 9 9 9 10 9 10 10 11 11 11 11 12 12 12 11 11 11 11 11 11 9 9 10 8 8 9 9 9 8 9 7 8 6 6 7 5 2 17 18 7 7 4 5 4 3 4 4 4 4 4 6 7 6 7 7
12 10 11 13 12 12 10 9 9 8 8 8 8 8 9 9 8 8 7 8 9 9 9 10 10 11 11 12 12 11 11 11 11 12 12 12 12 11 11 11 9 9 9 9 8 9 9 9 9 9 10 10 9 7 6 3 4 11 16 7 6 4 4 4 4 5 5 4 5 6 5 6 8 8
12 12 12 12 11 12 11 8 8 8 8 8 8 8 8 7 6 7 8 9 9 9 9 9 10 11 13 13 13 14 14 12 11 11 11 11 12 12 10 10 9 8 9 9 8 8 8 9 10 10 9 10 10 8 7 6 5 1 7 17 6 4 4 4 5 4 4 5 4 4 4 7 9 16
11 12 11 11 11 12 12 9 7 7 8 8 8 8 8 7 8 8 8 8 9 9 10 11 12 11 11 12 12 11 12 15 15 13 12 11 10 10 10 10 11 11 10 10 8 8 8 9 9 9 8 5 5 6 6 5 3 2 3 1 8 7 4 3 4 4 5 5 4 4 6 5 7 5
13 12 12 12 12 12 11 8 6 6 8 9 9 9 8 8 9 9 9 10 9 10 10 10 11 12 11 11 11 12 12 10 10 10 11 11 11 11 12 11 9 9 10 10 8 8 9 7 6 9 8 7 7 6 6 4 2 1 2 4 6 9 11 10 6 5 5 5 4 6 7 7 8 8
11 11 11 11 12 11 8 8 7 8 8 8 7 7 7 8 8 11 11 12 12 11 10 10 9 9 9 9 10 10 11 12 11 11 11 11 10 10 11 10 10 9 10 10 10 8 6 6 8 7 7 7 6 6 5 6 5 3 4 3 3 7 9 10 13 13 9 6 3 4 5 6 4 9
8 10 11 10 9 10 10 8 7 7 7 7 7 7 7 7 7 9 8 8 8 8 8 8 8 9 9 9 10 10 10 11 11 11 11 11 11 12 11 9 9 9 9 7 6 6 7 8 7 7 7 6 5 5 7 5 3 3 3 3 2 1 2 8 11 13 14 16 15 12 8 7 6 9
12 7 10 11 10 10 8 6 6 6 7 7 7 8 9 9 9 9 9 9 10 9 9 9 9 9 10 9 9 8 8 9 10 11 11 11 10 10 10 9 9 8 8 7 7 7 6 7 7 7 7 6 6 6 6 5 4 4 3 2 2 3 4 3 3 9 12 15 18 19 21 22 21 22
11 8 2 6 5 4 4 5 6 6 6 7 7 8 7 7 8 7 7 8 8 8 8 9 9 9 9 9 10 10 8 10 10 9 9 9 9 9 9 9 9 9 8 7 8 7 7 7 6 5 5 4 4 5 4 5 4 4 3 3 3 3 4 3 5 6 6 6 10 18 20 22 23 25
Wind_Direction
233 239 239 240 243 237 235 229 222 217 213 208 197 189 191 191 202 187 207 220 211 226 190 184 210 191 189 187 187 185 184 175 173 174 174 178 182 193 192 192 189 190 193 198 201 201 203 210 215 217 215 212 208 205 207 205 206 216 222 225 230 232 233 234 246 281 293 290 289 299 308 318 325 329
232 240 243 241 247 243 242 240 234 224 220 213 207 203 203 188 206 194 197 229 194 206 206 194 178 189 190 185 186 189 183 175 172 176 179 176 181 191 190 190 191 192 195 198 201 200 203 210 215 216 219 218 215 213 215 210 211 217 220 225 230 232 236 242 249 254 262 272 288 300 316 325 330 328
228 237 242 242 244 237 244 248 245 244 234 227 219 217 199 205 211 193 192 233 230 177 193 206 189 180 188 182 180 184 176 175 170 175 183 181 180 185 187 187 191 193 195 198 201 203 204 209 214 217 218 220 217 218 215 216 217 219 223 227 234 238 235 235 240 252 278 300 307 312 319 326 322 320
231 238 242 240 239 234 235 245 241 244 244 233 231 226 214 212 211 185 188 216 231 197 195 189 186 177 176 175 175 186 166 178 173 173 183 184 175 179 180 187 191 194 194 198 201 203 205 209 214 218 219 220 222 219 221 220 221 223 224 230 237 243 239 234 237 258 282 299 308 312 314 313 313 316
234 236 241 243 240 229 231 239 238 237 238 241 240 235 229 229 210 188 199 211 229 280 153 163 176 177 160 174 180 175 173 174 182 177 180 178 175 174 180 185 196 198 196 198 201 203 205 208 213 217 220 221 221 223 224 222 223 225 229 240 249 253 256 257 259 262 285 298 296 296 296 298 310 318
244 241 241 241 237 226 235 238 237 231 231 226 233 237 226 232 227 207 197 220 198 210 162 123 125 162 176 174 182 179 177 186 178 179 177 179 177 181 180 185 198 201 195 197 200 201 203 207 212 215 218 219 221 224 224 222 222 225 232 240 246 255 260 268 274 290 287 280 283 290 296 304 309 317
243 247 246 246 232 224 235 239 238 234 233 228 229 232 224 232 230 218 211 205 217 198 207 175 162 175 181 184 185 188 187 180 181 177 181 178 183 186 185 186 185 195 192 196 200 200 201 204 209 214 215 216 221 223 223 222 222 226 233 237 242 246 254 262 269 271 278 283 285 290 295 299 303 305
242 244 250 247 234 230 238 238 233 231 230 230 232 236 230 229 230 217 215 217 219 189 183 202 181 183 174 197 173 177 154 166 183 193 175 159 177 186 190 188 185 192 193 197 200 200 200 202 206 211 214 216 219 221 220 221 223 226 229 235 239 241 244 251 265 281 287 287 290 288 286 288 288 289
243 245 245 248 232 231 241 243 236 227 227 229 231 234 231 232 231 225 217 223 211 184 198 186 199 178 190 177 169 172 165 169 178 183 190 188 182 186 196 190 192 190 197 198 200 200 200 202 205 209 212 214 217 220 220 222 225 228 232 235 236 238 240 242 249 255 259 264 272 276 274 274 278 283
246 249 248 245 237 239 242 247 240 231 231 229 229 231 232 228 225 225 227 221 218 213 205 174 169 192 179 172 186 185 175 169 172 184 193 181 187 179 191 203 195 194 193 189 198 202 204 204 206 209 212 212 216 217 220 224 227 230 233 235 234 233 235 237 239 241 243 247 251 253 261 268 275 279
255 253 253 248 240 242 244 248 244 237 236 230 232 228 226 218 218 224 227 221 218 221 205 194 189 181 196 183 181 187 184 183 182 178 172 195 199 194 191 194 204 196 200 202 194 191 190 198 204 213 214 215 216 216 219 225 229 232 232 230 228 227 226 227 228 229 234 241 246 250 256 266 273 277
258 257 256 253 247 244 247 246 246 237 241 237 239 233 225 218 217 221 224 222 221 222 219 194 190 190 179 192 155 138 162 177 199 196 184 191 190 195 196 200 187 192 184 191 194 199 200 208 212 215 219 218 216 215 218 224 230 233 231 227 225 222 221 221 221 222 228 236 241 247 257 266 273 280
261 261 258 257 253 250 250 247 245 241 237 238 243 237 222 217 218 221 218 215 217 224 221 216 183 180 189 192 170 174 187 192 195 180 185 208 197 185 187 204 194 183 182 188 185 198 191 191 201 199 205 213 214 215 215 218 227 228 223 220 219 218 217 218 220 225 230 234 236 242 253 264 272 278
261 259 261 258 256 254 253 251 249 247 245 242 239 239 222 219 221 219 219 216 215 216 218 221 192 191 201 194 192 190 197 190 159 174 189 193 183 169 205 206 208 183 174 177 193 204 188 179 190 193 203 203 197 197 212 209 196 213 218 214 212 213 213 216 222 226 230 232 237 242 251 263 271 278
267 262 258 257 257 256 256 255 252 249 247 246 246 245 236 226 221 221 221 221 217 215 217 219 208 207 209 204 196 198 186 183 186 186 183 185 172 187 182 202 188 192 176 185 192 201 190 174 190 200 207 199 196 193 201 208 213 214 216 211 207 208 215 219 221 223 224 228 232 238 245 256 268 279
263 262 260 255 252 249 248 250 248 246 245 246 247 246 243 240 235 227 221 222 221 216 219 217 216 211 218 207 192 193 182 188 189 189 188 189 188 189 199 202 193 189 174 184 189 200 174 179 186 197 206 198 196 193 194 208 215 214 208 205 207 212 215 218 219 219 220 225 230 235 239 243 255 272
258 257 256 258 251 247 244 245 246 247 246 243 244 246 245 242 240 238 234 228 225 219 224 224 223 217 216 209 203 196 186 173 185 186 195 199 199 198 202 205 184 156 179 174 187 188 187 176 184 194 198 186 186 195 207 212 214 210 207 208 212 214 215 216 215 215 221 225 232 238 243 249 261 272
259 253 253 254 255 250 245 239 241 241 241 242 241 240 239 241 243 241 238 236 232 225 224 224 230 228 215 213 201 189 173 180 190 190 198 195 196 200 210 207 196 174 171 180 170 181 189 177 173 195 186 170 185 192 202 210 212 212 211 214 215 215 213 211 210 214 220 228 235 240 246 258 267 274
256 256 252 250 253 253 245 240 237 238 238 237 236 235 235 235 238 240 239 236 234 230 229 231 234 234 222 221 203 176 186 194 194 191 192 191 196 196 107 46 94 144 187 176 159 196 172 170 180 194 174 172 185 189 202 211 214 214 216 215 214 214 214 209 208 213 220 229 235 240 250 260 270 275
253 255 252 251 251 249 247 242 240 238 238 236 236 236 237 238 237 238 236 238 234 232 231 234 236 236 228 220 208 182 188 193 189 172 83 77 103 130 169 180 164 170 188 183 180 149 171 179 181 180 161 162 180 188 186 211 213 215 216 218 217 217 213 208 206 210 219 228 237 247 255 263 270 277
253 251 248 247 249 249 247 240 236 237 238 239 238 239 239 239 238 242 237 236 236 236 238 239 239 237 232 225 204 183 187 183 174 162 170 193 180 173 183 189 170 196 174 192 191 157 159 181 168 154 172 171 176 186 190 195 215 214 219 221 219 216 211 205 205 211 222 233 243 252 259 266 272 284
251 248 247 245 245 246 246 238 235 233 233 236 238 239 239 241 240 242 238 228 230 234 239 241 241 239 234 225 216 198 189 184 173 179 197 191 168 188 194 190 187 169 186 198 170 155 185 152 156 143 123 119 192 189 185 189 205 219 225 222 217 212 207 203 205 217 231 242 249 258 269 272 279 267
251 250 247 244 243 242 243 240 238 235 229 231 233 236 235 239 241 241 231 215 217 220 226 236 239 242 235 226 220 214 203 192 188 194 197 169 180 193 198 176 138 169 223 198 171 168 169 152 172 145 130 176 258 186 201 197 201 209 210 213 211 206 200 198 211 229 239 245 255 269 279 283 289 237
257 249 247 242 240 242 241 240 238 236 229 227 231 232 232 235 242 240 224 197 214 218 216 223 223 227 223 217 217 216 209 204 199 202 198 187 189 195 189 183 182 194 188 161 177 177 155 163 170 177 166 139 183 184 180 201 195 198 185 188 172 195 195 208 229 244 248 253 268 281 285 285 290 241
258 254 247 247 235 238 241 242 241 236 232 229 228 228 229 230 238 235 179 205 214 215 216 218 220 219 217 215 214 216 216 211 206 205 203 196 198 193 189 189 194 206 157 175 176 169 171 171 169 166 198 109 137 132 187 169 196 184 185 177 174 195 176 203 203 217 236 257 274 283 288 290 290 284
255 250 250 249 238 234 237 241 240 238 236 231 228 227 229 232 233 230 205 205 208 212 216 217 217 215 212 211 214 214 214 213 206 206 208 203 202 205 198 191 186 193 182 173 176 180 151 170 176 165 169 141 185 129 143 178 202 173 180 176 178 189 183 195 198 195 191 199 219 248 257 267 275 276
254 252 250 246 242 237 234 236 239 239 237 235 233 233 232 232 228 223 219 204 208 211 216 214 216 214 213 211 212 211 212 209 203 205 206 205 199 194 181 185 206 193 156 167 180 182 175 169 170 169 173 168 147 163 151 150 189 179 186 191 186 194 197 194 206 201 199 201 199 244 270 280 283 285
255 254 251 245 238 237 235 237 239 239 236 232 234 235 233 231 228 223 221 213 211 209 212 215 218 218 213 211 209 210 207 203 188 183 180 172 172 135 112 106 111 130 145 164 170 156 155 150 164 173 163 161 162 168 175 170 131 166 165 178 161 185 183 189 204 198 192 194 201 216 198 221 241 261
255 251 249 245 243 239 237 237 239 241 239 235 234 231 228 229 229 224 220 217 208 212 211 215 219 219 214 210 210 198 179 156 144 140 146 132 102 84 83 78 89 115 134 144 128 115 132 150 153 146 142 170 159 165 141 167 156 174 168 153 171 201 188 204 204 213 214 201 205 202 198 212 243 241
261 257 253 251 248 242 236 236 236 236 230 233 234 233 230 226 225 220 221 215 212 214 214 215 217 217 209 202 186 165 152 154 164 158 151 142 134 132 123 104 79 67 88 124 110 114 121 122 128 131 132 139 155 155 161 132 147 161 155 163 157 107 211 208 213 210 198 206 206 217 228 215 222 240
261 260 258 251 245 247 243 237 231 231 231 231 231 231 226 223 219 219 216 212 212 214 214 213 212 210 193 161 146 164 166 170 168 163 162 161 160 147 147 128 112 118 96 80 97 127 126 123 130 138 142 145 129 162 138 128 137 157 179 169 169 181 197 158 208 195 201 195 195 206 218 235 244 239
266 258 258 260 259 252 244 241 238 234 228 223 221 222 220 220 218 219 218 216 214 214 211 206 196 184 171 176 175 168 170 170 168 166 166 163 159 156 143 138 146 126 98 99 80 91 106 127 132 137 131 157 157 166 128 139 168 174 173 176 188 210 210 198 205 217 223 230 241 240 230 224 233 237
292 279 263 253 253 245 242 239 235 230 225 220 217 217 217 217 216 215 210 213 211 209 201 196 189 186 173 175 170 170 169 171 164 164 160 161 154 159 166 165 159 155 152 144 123 107 98 81 112 125 145 150 151 153 152 163 194 185 188 194 189 206 215 221 209 215 223 226 244 246 248 235 236 252
291 283 267 247 239 238 233 231 229 227 222 218 213 213 217 217 213 212 211 210 211 199 198 193 186 176 174 172 171 172 172 160 158 163 163 161 158 161 169 166 165 164 128 142 147 150 142 119 105 78 80 69 51 144 169 168 178 186 193 184 197 203 217 206 223 219 220 218 230 252 255 258 254 256
282 285 277 257 236 232 232 229 230 228 225 218 215 213 211 214 214 214 210 208 201 196 191 191 183 174 172 172 171 171 167 161 154 153 153 158 165 170 168 165 163 164 155 152 143 158 138 151 138 118 104 97 120 319 222 186 160 186 173 196 190 200 202 204 205 223 223 235 233 241 259 263 267 262
276 276 281 277 254 233 226 228 228 230 228 224 217 213 210 211 208 208 209 201 195 191 188 184 178 173 172 169 166 165 159 155 158 157 160 165 170 168 173 172 167 168 172 169 160 162 155 160 159 151 147 152 145 177 258 212 197 181 178 194 201 196 190 194 212 220 230 228 233 237 250 266 267 266
272 273 279 283 277 251 223 220 224 228 225 221 218 210 213 212 210 208 204 181 186 186 184 174 174 169 165 163 160 161 159 162 165 167 167 170 171 171 169 173 167 166 160 161 161 159 161 161 167 158 151 145 155 195 211 107 200 200 174 197 191 189 188 193 194 216 233 227 242 237 248 261 268 270
266 266 270 274 279 274 244 217 209 213 220 219 216 214 215 215 207 197 168 173 182 183 173 173 170 166 164 163 162 164 167 169 166 167 172 170 169 176 175 168 161 161 160 159 157 165 166 165 168 175 170 171 173 180 189 203 134 207 203 187 184 178 160 180 206 225 238 231 237 243 252 257 261 270
264 263 261 263 270 278 266 229 198 199 207 217 219 217 213 204 184 165 173 180 179 171 168 166 169 170 168 170 171 168 167 166 171 173 171 174 174 169 166 165 158 158 154 158 161 162 165 172 175 177 180 177 182 186 171 153 179 217 202 191 156 147 194 181 218 243 243 251 253 254 256 263 274 274
242 245 252 257 260 263 260 233 199 192 202 212 216 216 206 191 176 172 171 170 168 170 169 172 171 172 175 174 171 169 169 170 170 169 169 169 170 168 168 167 164 160 158 163 161 169 170 178 177 179 179 152 88 99 99 118 86 47 19 251 213 198 181 166 207 230 263 257 266 278 274 274 272 269
235 239 240 244 251 251 242 208 192 193 208 213 211 206 196 182 175 175 172 169 167 168 174 175 174 175 174 168 167 163 163 164 162 164 164 164 166 165 166 161 157 163 160 168 160 172 179 182 158 145 108 108 117 95 69 76 129 146 174 258 287 266 254 245 233 226 239 256 259 257 267 273 282 285
233 228 230 233 236 229 213 206 195 202 207 206 198 182 178 178 181 173 170 173 171 173 169 168 168 164 161 160 160 160 162 163 161 162 162 161 160 159 162 159 160 160 163 169 172 174 155 132 144 144 118 130 125 140 173 187 181 139 167 172 195 241 239 241 244 247 249 242 226 260 275 285 269 274
254 225 229 225 218 213 210 200 198 199 199 185 181 170 162 165 163 168 163 162 159 157 160 159 159 158 159 158 163 163 160 159 160 160 159 162 160 157 160 165 164 163 163 151 125 134 136 142 147 136 144 136 158 153 176 177 164 164 155 154 183 167 247 255 261 263 266 266 266 267 262 266 282 275
316 281 229 217 202 203 194 182 181 182 173 178 171 166 167 164 169 167 161 157 158 159 155 155 155 155 156 155 153 154 157 155 155 156 158 159 159 157 156 154 151 144 144 141 133 140 137 144 149 146 147 162 163 159 170 162 183 193 188 187 177 178 217 225 249 264 271 272 272 272 271 269 266 268
331 307 220 176 177 141 153 173 169 166 165 159 165 168 163 154 150 146 145 146 144 142 144 148 149 150 148 149 151 152 151 154 150 147 148 146 145 143 140 144 140 141 144 148 140 142 138 135 141 133 136 146 154 163 170 170 181 171 189 182 207 222 230 227 245 251 243 247 245 256 264 266 268 271